Location: Godiavel Galaoual
(15.2485°N, 12.6604°W)
Time: 01:59:13
(UTC+00:00)

Explorer 7 - Pass Details

Date: 15 June 2021
Orbit: 484 x 676 km, 50.3° (Epoch: 29 July)

Event Time Altitude Azimuth Distance (km) Brightness Sun altitude
Rises 07:58:30 0° 311° (NW) 2,678 10.1 21.1°
Reaches altitude 10° 08:00:51 10° 304° (NW) 1,755 9.1 21.7°
Maximum altitude 08:04:35 41° 234° (SW) 741 7.3 22.5°
Drops below altitude 10° 08:08:11 10° 162° (SSE) 1,679 9.4 23.3°
Sets 08:10:23 0° 155° (SSE) 2,544 10.3 23.8°
